[[{"header":{"parameterUnit":"m.s-1","parameterCategory":1,"la1":30.2991,"la2":30.254,"lo1":-89.0895,"lo2":-89.0444,"dy":0.0017,"dx":0.0017,"nx":28,"ny":28,"refTime":"2024-12-22T09:00:00:Z","depth":0,"parameterNumber":2,"parameterNumberName":"U-component_of_WINDS"},"data":[0,0,0,0,0,0,0,0,0,0,0,0,0,0,0,0,0,0,0,0,0,0,0,0,0,0,0,0,0,0,0,0,0,0,0,0,0,0,0,0,0,0,0,0,0,0,0,0,0,0,0,0,0,0,0,0,0,0,-3.6584,-3.6584,0,-3.6618,-3.6618,-3.6618,-3.6484,-3.648,-3.6476,-3.6472,-3.6508,-3.6512,-3.6517,0,0,0,0,0,0,0,0,0,0,0,0,0,-3.6402,-3.6406,-3.6584,-3.6584,-3.6585,-3.6618,-3.6618,-3.6619,-3.6485,-3.648,-3.6475,-3.647,-3.6506,-3.6512,-3.6517,0,0,0,0,0,0,0,0,0,0,0,0,0,-3.6463,-3.6408,-3.6584,-3.6522,-3.6516,-3.6618,-3.6618,-3.6619,-3.6486,-3.648,-3.6474,-3.6468,-3.6505,-3.6511,-3.6518,-3.6681,0,0,-3.654,-3.6543,0,0,0,0,0,0,0,0,-3.646,-3.647,-3.653,-3.6526,-3.652,-3.654,-3.6567,-3.664,-3.6487,-3.6497,-3.6472,-3.6465,-3.6524,-3.6529,-3.6548,-3.6682,-3.6684,-3.654,-3.6544,-3.6547,-3.6549,0,0,0,0,0,0,0,-3.6456,-3.6468,-3.6597,-3.6531,-3.6525,-3.6492,-3.6494,-3.658,-3.6544,-3.6496,-3.6486,-3.6492,-3.652,-3.6542,-3.6548,-3.6684,-3.654,-3.6546,-3.6551,-3.6553,-3.6951,-3.6957,0,0,0,0,0,0,-3.646,-3.6465,-3.6596,-3.6598,-3.6475,-3.65,-3.6502,-3.654,-3.6542,-3.6537,-3.6497,-3.6486,-3.6533,-3.654,-3.6549,-3.6737,-3.6547,-3.6554,-3.6558,-3.6945,-3.6952,-3.6959,0,0,0,0,0,0,-3.6456,-3.6473,-3.6595,-3.6529,-3.6542,-3.651,-3.6553,-3.6544,-3.6566,-3.6543,-3.6536,-3.6526,-3.6528,-3.6539,-3.6648,-3.6736,-3.6557,-3.6563,-3.6937,-3.6947,-3.6956,-3.7116,0,0,0,0,0,0,-3.6452,-3.6472,-3.6534,-3.6531,-3.6546,-3.6694,-3.6558,-3.6549,-3.6578,-3.6563,-3.6569,-3.6564,-3.6524,-3.6639,-3.6655,-3.6743,-3.6569,-3.6929,-3.6942,-3.6953,-3.7103,-3.713,-3.7154,0,0,0,0,0,-3.6446,-3.6579,-3.6538,-3.6554,-3.6622,-3.67,-3.6708,-3.666,-3.6586,-3.6647,-3.6632,-3.6564,-3.6725,-3.6651,-3.6669,-3.676,-3.6923,-3.6938,-3.6952,-3.7092,-3.7125,-3.7153,0,0,0,0,0,0,-3.6593,-3.6577,-3.6532,-3.6668,-3.6686,-3.6677,-3.6753,-3.6697,-3.6737,-3.6721,-3.666,-3.6662,-3.6782,-3.6782,-3.67,-3.6916,-3.6811,-3.683,-3.6911,-3.6943,-3.6967,-3.6964,-3.6575,0,0,0,0,0,-3.6642,-3.6706,-3.6688,-3.681,-3.6821,-3.6786,-3.6818,-3.6779,-3.6795,-3.6803,-3.6796,-3.6815,-3.6868,-3.6906,-3.6955,-3.7103,-3.7101,-3.7174,-3.7199,-3.722,-3.7236,-3.7312,-3.7344,-3.7006,-3.7006,-3.7006,0,0,-3.6742,-3.6741,-3.6786,-3.684,-3.6849,-3.6916,-3.6793,-3.687,-3.6919,-3.6814,-3.6916,-3.6912,-3.6929,-3.7058,-3.7114,-3.7061,-3.7329,-3.7238,-3.7255,-3.726,-3.733,-3.7362,-3.7391,-3.7016,-3.7014,-3.7013,0,0,-3.6959,-3.6966,-3.7067,-3.7078,-3.7094,-3.7069,-3.7094,-3.7093,-3.7086,-3.7187,-3.7109,-3.7167,-3.7262,-3.7276,-3.7296,-3.7517,-3.7455,-3.7535,-3.7667,-3.7741,-3.7768,-3.7791,-3.7868,-3.7896,-3.7552,-3.7552,-3.7553,0,-3.7082,-3.718,-3.7126,-3.7207,-3.7232,-3.714,-3.7241,-3.7255,-3.7287,-3.7306,-3.7246,-3.7362,-3.7368,-3.7497,-3.7551,-3.7571,-3.7596,-3.7534,-3.7769,-3.7791,-3.7812,-3.7884,-3.7914,-3.7562,-3.7561,-3.756,-3.7559,0,-3.7329,-3.7398,-3.7478,-3.7509,-3.7543,-3.7635,-3.7594,-3.7635,-3.7593,-3.7575,-3.7678,-3.7681,-3.7728,-3.7756,-3.7716,-3.788,-3.7846,-3.7779,-3.7672,-3.7855,-3.7921,-3.7949,-3.7575,-3.7572,-3.7569,-3.7567,0,0,-3.764,-3.7639,-3.7669,-3.7681,-3.7691,-3.7743,-3.783,-3.7875,-3.791,-3.7935,-3.8005,-3.8087,-3.8024,-3.8047,-3.8008,-3.8074,-3.8246,-3.7998,-3.7997,-3.8042,-3.8424,-3.8473,-3.8506,-3.8205,-3.821,-3.8215,-3.8421,0,-3.7851,-3.7998,-3.7951,-3.8099,-3.8161,-3.8074,-3.8149,-3.8163,-3.8148,-3.8198,-3.8181,-3.824,-3.8153,-3.8166,-3.8228,-3.8212,-3.8322,-3.8197,-3.8268,-3.8272,-3.8265,-3.8541,-3.8594,-3.8789,-3.8448,-3.8452,-3.8455,0,-3.8117,-3.815,-3.8305,-3.8302,-3.8326,-3.8395,-3.8431,-3.8481,-3.8494,-3.8478,-3.8503,-3.845,-3.8534,-3.8428,-3.8542,-3.8458,-3.8484,-3.8481,-3.8488,-3.8491,-3.8373,-3.855,-3.885,-3.8879,-3.8496,-3.8493,-3.849,0,-3.8325,-3.8409,-3.8511,-3.8525,-3.8525,-3.8575,-3.8577,-3.8585,-3.8614,-3.8647,-3.8665,-3.8707,-3.873,-3.8763,-3.8722,-3.865,-3.8841,-3.8733,-3.8829,-3.883,-3.8872,-3.887,-3.9179,-3.8893,-3.8893,-3.8892,-3.8892,0,-3.8564,-3.8661,-3.8605,-3.8668,-3.8774,-3.8719,-3.8825,-3.8818,-3.8825,-3.8885,-3.8813,-3.887,-3.8814,-3.8866,-3.8835,-3.8932,-3.8943,-3.8932,-3.8922,-3.8937,-3.8939,-3.8952,-3.8937,-3.89,-3.8898,-3.8897,-3.8896,0,-3.8814,-3.878,-3.8885,-3.8877,-3.8877,-3.8955,-3.8947,-3.9005,-3.8984,-3.906,-3.9075,-3.9043,-3.91,-3.9063,-3.9122,-3.91,-3.9227,-3.92,-3.9222,-3.9214,-3.9312,-3.9302,-3.9639,-3.9679,-3.937,-3.9373,-3.9376,0,-3.8968,-3.904,-3.9039,-3.9073,-3.908,-3.9136,-3.9165,-3.9115,-3.9148,-3.9168,-3.9223,-3.9274,-3.9311,-3.9407,-3.9389,-3.9433,-3.9404,-3.9519,-3.941,-3.9422,-3.9403,-3.9398,-3.9404,-3.9541,-3.9544,-3.9547,-3.955,0,-3.9243,-3.9223,-3.9267,-3.9306,-3.9343,-3.9372,-3.9394,-3.9426,-3.9375,-3.9416,-3.9473,-3.9503,-3.9561,-3.9612,-3.9648,-3.965,-3.9591,-3.9584,-3.9608,-3.9623,-3.9632,-3.9626,-3.928,-3.9576,-3.9574,-3.9572,-3.957,-3.9569,-3.9448,-3.9507,-3.9515,-3.9567,-3.9578,-3.9601,-3.9653,-3.9639,-3.9686,-3.9729,-3.9696,-3.9764,-3.9774,-3.9816,-3.9826,-3.9877,-3.983,-3.9866,-3.9875,-3.9884,-3.9896,-3.9626,-3.9884,-3.9883,-3.9882,-3.9882,-3.9881,0,-3.9717,-3.9718,-3.9766,-3.9799,-3.984,-3.9781,-3.9803,-3.984,-3.99,-3.9915,-3.9953,-4.0018,-4.0067,-4.0053,-4.0096,-4.014,-4.0114,-4.0153,-4.0148,-4.0148,-3.9937,-3.991,-4.0173,-4.0173,-4.0173,-4.0173,-4.0172,-4.0172,-3.9862,-3.9959,-3.9939,-4.0041,-4.004,-4.0105,-4.0122,-4.0142,-4.0153,-4.0228,-4.0268,-4.0258,-4.0261,-4.0303,-4.0345,-4.0339,-4.0357,-4.0406,-4.0391,-4.0193,-4.0164,-4.0136,-4.0111,-4.0411,-4.0411,-4.0597,-4.0599,-4.06]},{"header":{"parameterUnit":"m.s-1","parameterCategory":1,"la1":30.2991,"la2":30.254,"lo1":-89.0895,"lo2":-89.0444,"dy":0.0017,"dx":0.0017,"nx":28,"ny":28,"refTime":"2024-12-22T09:00:00:Z","depth":0,"parameterNumber":3,"parameterNumberName":"V-component_of_WINDS"},"data":[0,0,0,0,0,0,0,0,0,0,0,0,0,0,0,0,0,0,0,0,0,0,0,0,0,0,0,0,0,0,0,0,0,0,0,0,0,0,0,0,0,0,0,0,0,0,0,0,0,0,0,0,0,0,0,0,0,0,-2.7088,-2.7088,0,-2.7143,-2.7143,-2.7144,-2.7118,-2.7117,-2.7115,-2.7114,-2.7169,-2.7171,-2.7174,0,0,0,0,0,0,0,0,0,0,0,0,0,-2.6958,-2.696,-2.7088,-2.7088,-2.7089,-2.7143,-2.7143,-2.7144,-2.7118,-2.7117,-2.7115,-2.7113,-2.7168,-2.7171,-2.7174,0,0,0,0,0,0,0,0,0,0,0,0,0,-2.7014,-2.6961,-2.7088,-2.7083,-2.7083,-2.7142,-2.7143,-2.7144,-2.7119,-2.7117,-2.7115,-2.7113,-2.7167,-2.7171,-2.7175,-2.7242,0,0,-2.7187,-2.7189,0,0,0,0,0,0,0,0,-2.701,-2.7018,-2.7083,-2.7083,-2.7083,-2.7121,-2.7117,-2.7177,-2.7119,-2.7105,-2.7114,-2.7112,-2.7154,-2.7159,-2.7174,-2.7244,-2.7247,-2.7188,-2.719,-2.7192,-2.7193,0,0,0,0,0,0,0,-2.7007,-2.7016,-2.7109,-2.7084,-2.7084,-2.7077,-2.7082,-2.7129,-2.7141,-2.7106,-2.7104,-2.7111,-2.7154,-2.717,-2.7175,-2.7247,-2.7187,-2.7191,-2.7194,-2.7195,-2.7373,-2.7375,0,0,0,0,0,0,-2.7003,-2.7013,-2.7108,-2.7111,-2.7041,-2.7081,-2.7087,-2.7111,-2.714,-2.7143,-2.7113,-2.711,-2.7164,-2.7171,-2.7177,-2.7256,-2.7192,-2.7196,-2.7198,-2.737,-2.7373,-2.7376,0,0,0,0,0,0,-2.7,-2.7012,-2.7105,-2.7061,-2.7073,-2.7085,-2.7113,-2.7113,-2.713,-2.7145,-2.7147,-2.7128,-2.7163,-2.7171,-2.7225,-2.7258,-2.7198,-2.7201,-2.7368,-2.7371,-2.7374,-2.7415,0,0,0,0,0,0,-2.6997,-2.7011,-2.7037,-2.7062,-2.7075,-2.7154,-2.7115,-2.7116,-2.7137,-2.7133,-2.7159,-2.7162,-2.7162,-2.7219,-2.723,-2.7262,-2.7205,-2.7365,-2.7369,-2.7373,-2.7411,-2.742,-2.7427,0,0,0,0,0,-2.6992,-2.7047,-2.7039,-2.7051,-2.7109,-2.7156,-2.7163,-2.7163,-2.714,-2.7166,-2.7175,-2.7161,-2.7253,-2.7225,-2.7236,-2.7271,-2.7363,-2.7368,-2.7373,-2.7407,-2.7418,-2.7427,0,0,0,0,0,0,-2.7025,-2.705,-2.7042,-2.7106,-2.7129,-2.7151,-2.7184,-2.7174,-2.7204,-2.7199,-2.7197,-2.7203,-2.7259,-2.727,-2.7239,-2.7336,-2.7304,-2.7312,-2.7326,-2.7336,-2.7344,-2.734,-2.7208,0,0,0,0,0,-2.704,-2.7077,-2.7096,-2.7151,-2.7163,-2.7172,-2.7192,-2.719,-2.7214,-2.7223,-2.7237,-2.726,-2.7293,-2.7316,-2.7348,-2.7413,-2.7417,-2.7442,-2.7449,-2.7456,-2.7462,-2.7496,-2.7506,-2.7392,-2.7392,-2.7392,0,0,-2.7071,-2.7089,-2.7113,-2.7158,-2.7176,-2.7213,-2.718,-2.7221,-2.7249,-2.7229,-2.7281,-2.7292,-2.7317,-2.7376,-2.7403,-2.7387,-2.7495,-2.7462,-2.7467,-2.747,-2.7502,-2.7513,-2.7522,-2.7396,-2.7395,-2.7394,0,0,-2.7146,-2.7164,-2.7211,-2.7229,-2.7256,-2.7261,-2.7272,-2.7296,-2.7303,-2.7355,-2.734,-2.7372,-2.7431,-2.7449,-2.7465,-2.7546,-2.7533,-2.7556,-2.7597,-2.763,-2.7639,-2.7647,-2.7674,-2.7684,-2.7562,-2.7563,-2.7563,0,-2.7181,-2.7238,-2.7237,-2.7279,-2.7298,-2.7282,-2.7329,-2.7346,-2.7382,-2.7396,-2.7378,-2.745,-2.7466,-2.7528,-2.7548,-2.7562,-2.7574,-2.7553,-2.7638,-2.7646,-2.7653,-2.7679,-2.7689,-2.7565,-2.7565,-2.7565,-2.7564,0,-2.7278,-2.7317,-2.7352,-2.7387,-2.741,-2.7455,-2.7459,-2.7483,-2.7478,-2.7485,-2.7537,-2.7555,-2.759,-2.7604,-2.76,-2.7666,-2.7655,-2.7638,-2.7605,-2.7666,-2.769,-2.7701,-2.7569,-2.7568,-2.7567,-2.7566,0,0,-2.7376,-2.7409,-2.7422,-2.7437,-2.7465,-2.7494,-2.7537,-2.7571,-2.7591,-2.7616,-2.765,-2.77,-2.7683,-2.7702,-2.77,-2.7728,-2.7789,-2.7707,-2.7707,-2.772,-2.786,-2.7872,-2.7884,-2.778,-2.7782,-2.7784,-2.7858,0,-2.7453,-2.7528,-2.7527,-2.7596,-2.7631,-2.7616,-2.7653,-2.7673,-2.768,-2.771,-2.7717,-2.7752,-2.7728,-2.7739,-2.7767,-2.7776,-2.7817,-2.777,-2.7811,-2.7813,-2.7805,-2.7897,-2.7911,-2.7979,-2.7867,-2.7869,-2.787,0,-2.7552,-2.758,-2.7652,-2.7673,-2.7688,-2.7721,-2.7751,-2.7781,-2.7803,-2.7805,-2.7826,-2.7819,-2.7861,-2.7828,-2.7884,-2.7853,-2.7869,-2.7876,-2.7879,-2.7882,-2.7845,-2.7901,-2.8001,-2.8011,-2.7885,-2.7884,-2.7883,0,-2.7614,-2.767,-2.772,-2.7733,-2.776,-2.7783,-2.7795,-2.7815,-2.7835,-2.7861,-2.7874,-2.7905,-2.7921,-2.7945,-2.7945,-2.7921,-2.8002,-2.7969,-2.8004,-2.8004,-2.8022,-2.802,-2.8124,-2.8034,-2.8034,-2.8034,-2.8033,0,-2.7699,-2.7744,-2.7748,-2.7779,-2.7828,-2.7826,-2.7875,-2.7884,-2.7902,-2.7933,-2.7922,-2.7951,-2.7951,-2.7981,-2.7981,-2.8027,-2.8035,-2.8038,-2.8037,-2.8038,-2.8038,-2.8049,-2.8043,-2.8036,-2.8036,-2.8035,-2.8035,0,-2.7777,-2.7782,-2.7836,-2.7856,-2.7862,-2.7897,-2.7913,-2.7942,-2.7947,-2.7987,-2.7996,-2.8005,-2.8039,-2.8042,-2.8082,-2.8082,-2.8137,-2.8132,-2.813,-2.8128,-2.8163,-2.8159,-2.8277,-2.8291,-2.8193,-2.8194,-2.8194,0,-2.783,-2.7864,-2.7888,-2.7908,-2.7921,-2.7954,-2.7974,-2.7973,-2.7995,-2.8021,-2.8046,-2.808,-2.8106,-2.8161,-2.817,-2.82,-2.8195,-2.8234,-2.8199,-2.8198,-2.8194,-2.8191,-2.8194,-2.824,-2.8241,-2.8242,-2.8243,0,-2.7924,-2.7924,-2.7954,-2.7984,-2.8009,-2.8032,-2.8054,-2.8072,-2.8073,-2.8097,-2.8132,-2.8153,-2.8193,-2.8225,-2.8254,-2.8265,-2.8254,-2.8254,-2.8263,-2.8264,-2.8261,-2.8262,-2.8147,-2.8251,-2.825,-2.825,-2.8249,-2.8249,-2.799,-2.8019,-2.8039,-2.8072,-2.8089,-2.811,-2.8137,-2.8145,-2.8175,-2.8207,-2.8205,-2.8243,-2.8262,-2.83,-2.8313,-2.8342,-2.8329,-2.8343,-2.8347,-2.835,-2.8353,-2.8257,-2.8348,-2.8348,-2.8347,-2.8347,-2.8347,0,-2.8082,-2.8094,-2.8124,-2.8156,-2.8181,-2.8169,-2.8192,-2.8214,-2.8248,-2.8267,-2.8293,-2.8332,-2.8363,-2.8374,-2.8404,-2.8425,-2.8421,-2.8433,-2.8431,-2.8433,-2.8364,-2.8352,-2.8436,-2.8436,-2.8436,-2.8436,-2.8436,-2.8436,-2.8132,-2.818,-2.8183,-2.8237,-2.8249,-2.8286,-2.8301,-2.8319,-2.8334,-2.8379,-2.8404,-2.8411,-2.8427,-2.8458,-2.8485,-2.8487,-2.8498,-2.8513,-2.8513,-2.8447,-2.8438,-2.843,-2.8419,-2.8515,-2.8515,-2.858,-2.858,-2.8581]}]]